CST,Max TemperatureF,Mean TemperatureF,Min TemperatureF,Max Dew PointF,MeanDew PointF,Min DewpointF,Max Humidity, Mean Humidity, Min Humidity, Max Sea Level PressureIn, Mean Sea Level PressureIn, Min Sea Level PressureIn, Max VisibilityMiles, Mean VisibilityMiles, Min VisibilityMiles, Max Wind SpeedMPH, Mean Wind SpeedMPH, Max Gust SpeedMPH,PrecipitationIn, CloudCover, Events, WindDirDegrees
2013-2-1,42,28,15,21,14,9,80,56,31,30.46,30.34,30.17,10,10,7,15,5,17,0.00,0,,117
2013-2-2,55,39,23,32,26,19,93,67,38,30.28,30.23,30.18,10,10,5,12,2,16,0.00,0,,304
2013-2-3,55,42,28,30,26,21,93,59,29,30.31,30.19,29.98,10,10,10,9,2,,0.00,0,,87
2013-2-4,62,48,33,45,37,27,93,62,41,29.97,29.90,29.84,10,10,2,14,5,24,0.04,3,,182
2013-2-5,62,45,28,48,36,28,100,78,34,30.06,30.00,29.93,10,9,0,7,1,,0.00,1,Fog,267
2013-2-6,64,48,32,43,37,32,100,68,37,30.09,30.02,29.95,10,10,10,16,4,24,0.00,1,,140
2013-2-7,59,50,42,54,47,39,100,88,76,30.11,29.95,29.87,10,8,1,16,7,26,0.15,8,,105
2013-2-8,53,42,32,37,33,30,100,76,44,30.31,30.23,30.12,10,8,5,15,5,17,0.00,3,,33
2013-2-9,42,38,33,39,34,32,93,84,66,30.20,30.05,29.78,10,9,4,21,10,25,0.04,3,Snow,127
2013-2-10,59,50,37,52,36,28,100,64,34,30.07,29.80,29.66,10,9,2,22,12,31,0.30,2,,236
2013-2-11,53,40,26,30,27,23,100,67,35,30.22,30.15,30.07,10,10,10,12,2,16,0.00,0,,3
2013-2-12,41,36,32,37,32,27,100,85,65,30.14,30.03,29.94,10,8,2,10,2,,0.30,3,Rain-Snow,32
2013-2-13,51,42,30,36,33,30,100,84,47,30.06,30.00,29.96,10,9,2,12,4,,0.00,3,,265
2013-2-14,59,42,26,34,31,27,100,69,36,30.20,30.06,29.99,10,10,5,16,2,22,0.00,0,,332
2013-2-15,42,32,23,32,23,14,86,65,36,30.38,30.32,30.21,10,10,10,17,8,24,0.00,0,,335
2013-2-16,37,30,23,27,18,12,93,62,36,30.38,30.26,30.12,10,10,10,14,3,,0.00,1,,256
2013-2-17,66,48,30,32,27,16,69,46,26,30.12,29.98,29.84,10,10,10,16,6,23,0.00,0,,162
2013-2-18,59,46,33,52,39,28,82,65,44,30.16,29.83,29.65,10,10,4,25,15,38,0.09,3,,235
2013-2-19,46,34,21,27,24,21,100,68,40,30.36,30.26,30.16,10,10,10,15,3,20,0.00,0,,340
2013-2-20,35,32,30,32,28,19,100,83,52,30.30,30.19,30.04,10,7,0,13,5,18,0.36,5,Snow,93
2013-2-21,33,32,32,34,32,30,100,96,93,30.02,29.81,29.68,10,8,1,20,10,28,0.60,8,Snow,134
2013-2-22,37,29,21,28,22,18,93,74,52,30.15,30.07,29.94,10,10,10,14,7,23,0.00,1,,299
2013-2-23,44,32,19,28,23,19,100,73,39,30.12,30.03,29.96,10,9,5,6,0,,0.00,0,,289
2013-2-24,57,40,24,34,30,23,100,66,38,29.99,29.90,29.79,10,10,10,18,5,22,0.00,0,,128
2013-2-25,41,38,35,37,35,32,100,85,70,29.86,29.60,29.42,10,7,2,17,8,28,0.70,6,Rain-Snow,54
2013-2-26,37,34,32,36,32,30,100,93,87,29.91,29.67,29.42,10,7,2,21,12,30,0.01,8,Snow,316
2013-2-27,44,37,30,32,30,27,100,82,57,30.14,30.03,29.90,10,8,4,20,7,25,0.00,4,,296
2013-2-28,42,34,26,30,28,25,100,80,61,30.22,30.18,30.13,10,10,7,15,7,26,0.00,4,,325